Tracking 31027 objects as of 19-Jul-2025
HD Live streaming from Space Station
objects crossing your sky now

STARLINK-31259

Track STARLINK-31259 now!
10-day predictions
STARLINK-31259 is classified as:


NORAD ID: 59076
Int'l Code: 2024-041C
Perigee: 489.0 km
Apogee: 491.4 km
Inclination: 43.0 °
Period: 94.3 minutes
Semi major axis: 6861 km
RCS: Unknown
Launch date: February 29, 2024
Source: United States (US)
Launch site: AIR FORCE EASTERN TEST RANGE (AFETR)
Your satellite tracking list
COSMOS 830
Track 1 satellite(s)




NASA's NSSDC Master Catalog

Two Line Element Set (TLE):
1 59076U 24041C   25199.00399132  .00000764  00000-0  37312-4 0  9998
2 59076  43.0001 195.7220 0001768 291.1545  68.9118 15.27576211 77332
Source of the keplerian elements: AFSPC